Weather History for Trail Valley, NT

Change the Weather History Date:

Friday, January 25, 2013

  Actual Average Record
Temperature  
Mean Temperature -28 °F -  
Max Temperature -23 °F - - ()
Min Temperature -32 °F - - ()
Degree Days  
Heating Degree Days 92    
Moisture  
Dew Point -32 °F    
Average Humidity 71    
Maximum Humidity 74    
Minimum Humidity 57    
Precipitation  
Precipitation 0.05 in - - ()
Sea Level Pressure  
Sea Level Pressure 30.06 in    
Wind  
Wind Speed 11 mph ()    
Max Wind Speed 17 mph    
Max Gust Speed -    
T = Trace of Precipitation, MM = Missing Value Source: Averaged Metar Reports

Daily Weather History Graph

Daily Weather History Graph

Search for Another Location

Airport:

Trip Planner

Search our weather history database for the weather conditions in past years. The results will help you decide how hot, cold, wet, or windy it might be!

Date:

Astronomy

Jan. 25, 2013 Rise Set
Actual Time 11:51 AM MST 4:22 PM MST
Civil Twilight 10:25 AM MST 5:48 PM MST
Nautical Twilight 9:08 AM MST 7:05 PM MST
Astronomical Twilight 8:00 AM MST 8:13 PM MST
Moon 3:30 PM MST (1/25) 10:37 AM MST (1/25)
Length of Visible Light 7h 23m
Length of Day
4h 30m
Waxing Gibbous, 98% of the Moon is Illuminated
Jan 25
Waxing Gibbous
Jan 26
Full
Feb 3
Last Quarter
Feb 10
New
Feb 17
First Quarter

Hourly Weather History & Observations

Time (MST) Temp. Windchill Dew Point Humidity Pressure Visibility Wind Dir Wind Speed Gust Speed Precip Events Conditions
12:00 AM -23.8 °F -48.0 °F -29.7 °F 74% 30.10 in - WNW 12.7 mph - N/A   Unknown
1:00 AM -24.0 °F -46.0 °F -29.9 °F 74% 30.11 in - WNW 10.4 mph - N/A   Unknown
2:00 AM -24.7 °F -45.7 °F -30.6 °F 74% 30.11 in - West 9.2 mph - N/A   Unknown
3:00 AM -25.2 °F -48.7 °F -31.4 °F 73% 30.11 in - West 11.5 mph - N/A   Unknown
4:00 AM -27.0 °F -48.5 °F -33.2 °F 73% 30.10 in - West 9.2 mph - N/A   Unknown
5:00 AM -28 °F - -34 °F 58% 30.10 in - WNW 12.7 mph - -  
5:00 AM -27.6 °F -52.7 °F -33.9 °F 72% 30.10 in - WNW 12.7 mph - N/A   Unknown
6:00 AM -27.0 °F -51.0 °F -33.5 °F 71% 30.10 in - WNW 11.5 mph - N/A   Unknown
7:00 AM -26.9 °F -50.8 °F -33.2 °F 72% 30.10 in - WNW 11.5 mph - N/A   Unknown
8:00 AM -26.5 °F -54.2 °F -32.8 °F 72% 30.09 in - WNW 16.1 mph - N/A   Unknown
9:00 AM -26.7 °F -54.4 °F -33.0 °F 72% 30.08 in - WNW 16.1 mph - N/A   Unknown
10:00 AM -27.2 °F -54.2 °F -33.5 °F 72% 30.08 in - WNW 15.0 mph - N/A   Unknown
11:00 AM -26 °F - -32 °F 59% 30.09 in - WNW 17.3 mph - -  
11:00 AM -25.8 °F -54.0 °F -31.9 °F 73% 30.09 in - WNW 17.3 mph - N/A   Unknown
12:00 PM -28.3 °F -51.4 °F -34.6 °F 72% 30.08 in - WNW 10.4 mph - N/A   Unknown
1:00 PM -27.8 °F -53.0 °F -34.2 °F 71% 30.08 in - West 12.7 mph - N/A   Unknown
2:00 PM -27.0 °F -54.0 °F -33.3 °F 72% 30.07 in - West 15.0 mph - N/A   Unknown
3:00 PM -25.1 °F -49.6 °F -31.2 °F 73% 30.06 in - West 12.7 mph - N/A   Unknown
4:00 PM -24.0 °F -49.2 °F -29.9 °F 74% 30.04 in - West 13.8 mph - N/A   Unknown
5:00 PM -25 °F - -31 °F 59% 30.03 in - West 11.5 mph - -  
5:00 PM -24.9 °F -48.3 °F -31.0 °F 73% 30.03 in - West 11.5 mph - N/A   Unknown
6:00 PM -23.8 °F -49.8 °F -29.7 °F 74% 30.02 in - West 15.0 mph - N/A   Unknown
7:00 PM -25.1 °F -48.5 °F -31.2 °F 73% 30.01 in - West 11.5 mph - N/A   Unknown
8:00 PM -25.2 °F -48.7 °F -31.4 °F 73% 30.00 in - West 11.5 mph - N/A   Unknown
9:00 PM -25.8 °F -49.4 °F -31.9 °F 73% 29.99 in - West 11.5 mph - N/A   Unknown
10:00 PM -25.4 °F -49.0 °F -31.5 °F 73% 29.99 in - West 11.5 mph - N/A   Unknown
11:00 PM -25 °F - -31 °F 57% 29.99 in - West 13.8 mph - -  
11:00 PM -25.2 °F -50.8 °F -31.4 °F 73% 29.99 in - West 13.8 mph - N/A   Unknown